| time (UTC) | temp F | wind direction | speed knots | gust knots | rain 1hr in | rain 24hr in | rain mn in | humidity % | barometer mb |
| 20260509223033 | 89 | 205 | 0.0 | 1.7 | 0.00 | 0.00 | 0.00 | 36 | 1006.9 |
| 20260509221534 | 89 | 205 | 0.0 | 2.6 | 0.00 | 0.00 | 0.00 | 38 | 1006.9 |
| 20260509220034 | 89 | 164 | 1.7 | 4.3 | 0.00 | 0.00 | 0.00 | 38 | 1007.1 |
| 20260509214530 | 88 | 104 | 0.9 | 6.1 | 0.00 | 0.00 | 0.00 | 41 | 1007.1 |
| 20260509213033 | 88 | 194 | 0.9 | 4.3 | 0.00 | 0.00 | 0.00 | 41 | 1007.3 |
| 20260509211529 | 88 | 107 | 1.7 | 7.8 | 0.00 | 0.00 | 0.00 | 42 | 1007.4 |
| 20260509210033 | 88 | 5 | 1.7 | 3.5 | 0.00 | 0.00 | 0.00 | 42 | 1007.7 |
| 20260509204527 | 88 | 90 | 1.7 | 5.2 | 0.00 | 0.00 | 0.00 | 39 | 1007.9 |
| 20260509203027 | 88 | 355 | 0.0 | 2.6 | 0.00 | 0.00 | 0.00 | 39 | 1008.1 |
| 20260509201526 | 88 | 167 | 0.0 | 1.7 | 0.00 | 0.00 | 0.00 | 40 | 1008.3 |
| 20260509200024 | 87 | 28 | 1.7 | 5.2 | 0.00 | 0.00 | 0.00 | 37 | 1008.5 |
| 20260509194526 | 87 | 355 | 1.7 | 5.2 | 0.00 | 0.00 | 0.00 | 39 | 1008.7 |
| 20260509193028 | 87 | 23 | 2.6 | 7.0 | 0.00 | 0.00 | 0.00 | 43 | 1008.8 |
| 20260509191530 | 87 | 34 | 0.9 | 4.3 | 0.00 | 0.00 | 0.00 | 44 | 1008.9 |
| 20260509190018 | 86 | 344 | 0.9 | 5.2 | 0.00 | 0.00 | 0.00 | 49 | 1009.0 |
| 20260509184531 | 86 | 16 | 1.7 | 5.2 | 0.00 | 0.00 | 0.00 | 52 | 1009.2 |
| 20260509183017 | 86 | 10 | 2.6 | 7.0 | 0.00 | 0.00 | 0.00 | 47 | 1009.3 |
| 20260509181513 | 86 | 248 | 0.9 | 4.3 | 0.00 | 0.00 | 0.00 | 48 | 1009.5 |
| 20260509180016 | 86 | 24 | 1.7 | 4.3 | 0.00 | 0.00 | 0.00 | 49 | 1009.7 |
| 20260509174517 | 84 | 18 | 0.9 | 4.3 | 0.00 | 0.00 | 0.00 | 51 | 1009.8 |
| 20260509173007 | 85 | 338 | 0.9 | 5.2 | 0.00 | 0.00 | 0.00 | 50 | 1009.8 |
| 20260509171503 | 83 | 350 | 0.9 | 5.2 | 0.00 | 0.00 | 0.00 | 52 | 1009.9 |
| 20260509170109 | 83 | 15 | 2.6 | 4.3 | 0.00 | 0.00 | 0.00 | 51 | 1009.9 |
| 20260509164559 | 83 | 17 | 1.7 | 7.0 | 0.00 | 0.00 | 0.00 | 51 | 1010.2 |
| 20260509163057 | 82 | 17 | 1.7 | 5.2 | 0.00 | 0.00 | 0.00 | 56 | 1010.4 |
| 20260509161549 | 82 | 355 | 1.7 | 4.3 | 0.00 | 0.00 | 0.00 | 53 | 1010.5 |
| 20260509160044 | 80 | 5 | 0.9 | 4.3 | 0.00 | 0.00 | 0.00 | 56 | 1010.5 |
| 20260509154540 | 79 | 355 | 1.7 | 5.2 | 0.00 | 0.00 | 0.00 | 57 | 1010.2 |
| 20260509153051 | 78 | 23 | 2.6 | 7.8 | 0.00 | 0.00 | 0.00 | 60 | 1010.2 |
| 20260509151534 | 78 | 313 | 0.9 | 5.2 | 0.00 | 0.00 | 0.00 | 64 | 1010.2 |
| 20260509150031 | 76 | 253 | 1.7 | 5.2 | 0.00 | 0.00 | 0.00 | 67 | 1010.2 |
| 20260509144531 | 76 | 38 | 1.7 | 5.2 | 0.00 | 0.00 | 0.00 | 66 | 1010.3 |
| 20260509143024 | 75 | 30 | 1.7 | 4.3 | 0.00 | 0.00 | 0.00 | 69 | 1010.4 |
| 20260509141522 | 75 | 19 | 0.9 | 4.3 | 0.00 | 0.00 | 0.00 | 72 | 1010.6 |
| 20260509140019 | 73 | 5 | 1.7 | 3.5 | 0.00 | 0.00 | 0.00 | 74 | 1010.7 |
| 20260509134516 | 72 | 5 | 0.9 | 4.3 | 0.00 | 0.00 | 0.00 | 76 | 1010.6 |
| 20260509133013 | 70 | 271 | 0.9 | 3.5 | 0.00 | 0.00 | 0.00 | 77 | 1010.6 |
| 20260509131510 | 69 | 273 | 0.9 | 3.5 | 0.00 | 0.00 | 0.00 | 78 | 1010.4 |
| 20260509130022 | 68 | 355 | 0.0 | 2.6 | 0.00 | 0.00 | 0.00 | 79 | 1010.5 |
| 20260509124508 | 67 | 325 | 0.9 | 2.6 | 0.00 | 0.00 | 0.00 | 79 | 1010.5 |
| 20260509123005 | 66 | 351 | 0.0 | 1.7 | 0.00 | 0.00 | 0.00 | 80 | 1010.3 |
| 20260509121501 | 66 | 351 | 0.0 | 3.5 | 0.00 | 0.00 | 0.00 | 79 | 1010.2 |
| 20260509120058 | 66 | 351 | 0.0 | 2.6 | 0.00 | 0.00 | 0.00 | 78 | 1010.0 |
| 20260509114600 | 66 | 266 | 0.0 | 2.6 | 0.00 | 0.00 | 0.00 | 78 | 1010.0 |
| 20260509113058 | 66 | 260 | 0.0 | 1.7 | 0.00 | 0.00 | 0.00 | 78 | 1009.6 |
| 20260509111551 | 66 | 259 | 0.0 | 1.7 | 0.00 | 0.00 | 0.00 | 77 | 1009.1 |
| 20260509110050 | 66 | 234 | 1.7 | 3.5 | 0.00 | 0.00 | 0.00 | 77 | 1009.1 |
| 20260509104547 | 67 | 220 | 1.7 | 3.5 | 0.00 | 0.00 | 0.00 | 76 | 1009.1 |
| 20260509103057 | 67 | 252 | 1.7 | 4.3 | 0.00 | 0.00 | 0.00 | 75 | 1009.3 |
| 20260509101558 | 68 | 262 | 0.9 | 2.6 | 0.00 | 0.00 | 0.00 | 75 | 1009.2 |
| 20260509100042 | 68 | 32 | 0.0 | 2.6 | 0.00 | 0.00 | 0.00 | 75 | 1009.0 |
| 20260509094546 | 68 | 55 | 0.9 | 3.5 | 0.00 | 0.00 | 0.00 | 76 | 1009.0 |
| 20260509093041 | 68 | 355 | 0.0 | 3.5 | 0.00 | 0.00 | 0.00 | 78 | 1008.6 |
| 20260509091542 | 68 | 355 | 2.6 | 9.6 | 0.00 | 0.00 | 0.00 | 78 | 1007.6 |
| 20260509090047 | 68 | 139 | 1.7 | 4.3 | 0.00 | 0.00 | 0.00 | 77 | 1006.1 |
| 20260509084542 | 68 | 238 | 2.6 | 6.1 | 0.00 | 0.00 | 0.00 | 78 | 1006.3 |
| 20260509083050 | 68 | 160 | 0.9 | 4.3 | 0.00 | 0.00 | 0.00 | 78 | 1006.3 |
| 20260509081533 | 68 | 219 | 1.7 | 6.1 | 0.00 | 0.00 | 0.00 | 79 | 1006.8 |
| 20260509080031 | 68 | 123 | 1.7 | 6.1 | 0.00 | 0.00 | 0.00 | 80 | 1006.6 |
| 20260509074528 | 69 | 97 | 0.9 | 3.5 | 0.00 | 0.00 | 0.00 | 79 | 1007.7 |
| 20260509073030 | 69 | 221 | 0.0 | 2.6 | 0.00 | 0.00 | 0.00 | 76 | 1008.9 |
| 20260509071526 | 69 | 243 | 2.6 | 7.0 | 0.00 | 0.00 | 0.00 | 80 | 1009.5 |
| 20260509070119 | 69 | 239 | 6.1 | 9.6 | 0.00 | 0.00 | 0.00 | 85 | 1010.3 |
| 20260509064516 | 69 | 242 | 2.6 | 7.8 | 0.00 | 0.00 | 0.00 | 86 | 1011.2 |
| 20260509063021 | 69 | 267 | 0.9 | 2.6 | 0.00 | 0.00 | 0.00 | 85 | 1011.5 |
| 20260509061523 | 69 | 255 | 0.9 | 2.6 | 0.00 | 0.00 | 0.00 | 85 | 1011.3 |
| 20260509060019 | 69 | 340 | 0.9 | 2.6 | 0.00 | 0.00 | 0.00 | 85 | 1011.2 |
| 20260509054517 | 69 | 340 | 0.0 | 1.7 | 0.00 | 0.00 | 0.00 | 85 | 1010.8 |
| 20260509053018 | 69 | 340 | 0.9 | 2.6 | 0.00 | 0.00 | 0.00 | 84 | 1011.1 |
| 20260509051515 | 69 | 337 | 0.9 | 2.6 | 0.00 | 0.00 | 0.00 | 83 | 1011.1 |
| 20260509050017 | 70 | 153 | 0.0 | 1.7 | 0.00 | 0.00 | 0.00 | 82 | 1010.1 |
| 20260509044510 | 70 | 153 | 0.0 | 1.7 | 0.00 | 0.00 | 0.00 | 82 | 1009.8 |
| 20260509043010 | 70 | 153 | 0.0 | 2.6 | 0.00 | 0.00 | 0.00 | 82 | 1009.8 |
| 20260509041509 | 71 | 189 | 0.9 | 2.6 | 0.00 | 0.00 | 0.00 | 82 | 1009.8 |
| 20260509040023 | 71 | 119 | 0.0 | 1.7 | 0.00 | 0.00 | 0.00 | 80 | 1009.9 |
| 20260509034508 | 71 | 68 | 0.0 | 1.7 | 0.00 | 0.00 | 0.00 | 80 | 1009.9 |
| 20260509033007 | 72 | 78 | 0.9 | 2.6 | 0.00 | 0.00 | 0.00 | 80 | 1009.3 |
| 20260509031508 | 72 | 102 | 1.7 | 6.1 | 0.00 | 0.00 | 0.00 | 79 | 1008.9 |
| 20260509030006 | 72 | 154 | 1.7 | 4.3 | 0.00 | 0.00 | 0.00 | 79 | 1008.3 |
| 20260509024508 | 72 | 148 | 0.9 | 4.3 | 0.00 | 0.00 | 0.00 | 78 | 1008.1 |
| 20260509023008 | 72 | 146 | 1.7 | 6.1 | 0.00 | 0.00 | 0.00 | 78 | 1007.9 |
| 20260509021505 | 72 | 163 | 0.9 | 5.2 | 0.00 | 0.00 | 0.00 | 77 | 1007.7 |
| 20260509020003 | 72 | 153 | 1.7 | 5.2 | 0.00 | 0.00 | 0.00 | 77 | 1007.6 |
| 20260509014503 | 72 | 131 | 0.9 | 2.6 | 0.00 | 0.00 | 0.00 | 76 | 1008.1 |
| 20260509013002 | 73 | 171 | 0.9 | 1.7 | 0.00 | 0.00 | 0.00 | 76 | 1008.2 |
| 20260509011501 | 73 | 178 | 0.9 | 2.6 | 0.00 | 0.00 | 0.00 | 75 | 1008.2 |
| 20260509010001 | 73 | 178 | 0.0 | 1.7 | 0.00 | 0.00 | 0.00 | 74 | 1007.8 |
| 20260509004613 | 73 | 175 | 0.9 | 4.3 | 0.00 | 0.00 | 0.00 | 74 | 1007.7 |
| 20260509003100 | 73 | 169 | 1.7 | 4.3 | 0.00 | 0.00 | 0.00 | 74 | 1007.6 |
| 20260509001558 | 73 | 107 | 1.7 | 6.1 | 0.00 | 0.00 | 0.00 | 74 | 1007.6 |
| 20260509000100 | 73 | 132 | 0.9 | 4.3 | 0.00 | 0.00 | 0.00 | 74 | 1008.0 |
| 20260508234557 | 73 | 156 | 0.9 | 6.1 | 0.00 | 0.00 | 0.00 | 73 | 1008.0 |
| 20260508233057 | 73 | 123 | 1.7 | 6.1 | 0.00 | 0.00 | 0.00 | 73 | 1008.1 |
| 20260508231553 | 73 | 162 | 1.7 | 5.2 | 0.00 | 0.00 | 0.00 | 72 | 1008.0 |
| 20260508230053 | 74 | 251 | 1.7 | 7.0 | 0.00 | 0.00 | 0.00 | 72 | 1008.0 |
| 20260508224624 | 74 | 130 | 2.6 | 7.8 | 0.00 | 0.00 | 0.00 | 70 | 1008.2 |